Wind_Speed
23 23 22 21 20 17 16 17 17 19 20 19 18 18 20 20 19 21 17 13 12 13 13 14 16 17 18 18 18 15 18 13 9 9 6 6 6 7 8 9 12 15 18
23 23 24 23 21 19 18 18 18 18 17 18 18 20 23 23 21 20 21 18 17 17 17 17 20 20 19 20 21 17 16 15 13 11 9 9 8 8 7 7 9 13 15
24 25 24 25 22 20 19 19 20 18 18 20 21 23 25 24 21 21 23 22 23 23 21 22 22 22 22 22 21 21 20 20 17 13 11 12 11 9 9 10 11 11 12
26 27 27 25 23 22 21 21 20 20 21 22 24 28 28 24 21 21 22 23 27 28 27 26 27 26 26 27 23 20 21 21 19 16 14 14 14 12 13 13 13 12 13
27 28 28 25 23 23 23 22 20 20 22 22 25 26 23 21 22 24 25 26 28 28 30 31 32 32 31 32 29 26 24 23 22 19 19 19 18 17 17 16 17 17 16
29 29 28 27 25 24 23 24 21 20 21 22 21 19 18 18 22 27 29 28 28 27 28 33 34 34 33 34 31 30 27 25 24 23 23 24 21 19 20 18 17 19 20
30 31 29 27 27 27 26 27 25 22 21 19 17 16 17 18 19 23 27 26 23 23 25 32 37 37 35 33 30 31 30 29 26 24 24 25 22 20 21 19 17 17 18
29 28 26 26 27 27 27 28 29 28 24 19 16 16 17 17 18 20 21 21 19 16 20 24 35 37 33 31 31 32 33 35 32 29 28 26 25 23 21 20 18 15 16
28 26 26 25 24 25 26 25 26 26 22 18 18 17 17 16 17 17 16 16 14 12 13 13 20 38 37 38 37 36 33 35 35 32 31 28 26 26 25 24 23 20 19
26 25 24 25 26 25 24 24 23 22 20 19 17 17 17 17 18 19 17 15 14 13 13 12 9 21 30 38 39 36 32 33 34 33 30 27 30 30 29 28 27 25 22
24 24 24 26 28 25 24 25 22 20 18 18 17 16 15 16 17 19 19 17 14 13 14 15 15 15 15 21 26 31 29 29 30 32 32 31 32 31 30 31 31 30 27
23 23 24 25 28 26 24 23 20 19 17 16 16 17 17 19 20 20 20 20 18 15 12 15 19 22 21 20 18 23 23 23 28 33 33 32 33 33 31 32 32 31 29
23 23 24 27 28 27 24 21 18 17 16 15 16 19 21 23 24 24 22 21 20 19 15 16 20 24 26 28 27 27 28 24 26 30 32 31 29 29 32 34 35 34 32
23 23 25 28 29 28 25 20 17 15 15 16 18 20 23 25 25 24 23 23 22 21 18 17 20 22 25 27 26 28 30 28 28 29 30 32 31 28 29 31 34 34 32
26 25 26 29 30 27 23 19 17 18 19 21 22 22 23 23 24 25 24 23 23 23 21 20 21 23 25 27 26 24 26 26 27 30 33 33 29 29 27 26 30 32 30
29 29 31 33 28 22 19 19 20 23 25 26 26 25 24 25 25 25 25 23 23 24 24 23 23 24 26 29 30 26 25 22 22 26 33 37 32 32 30 30 29 31 31
31 30 30 26 21 20 20 22 25 26 27 28 27 26 25 25 25 25 25 25 26 27 27 26 25 25 25 23 22 22 25 25 23 26 32 37 38 36 30 32 31 32 34
27 22 17 17 19 21 23 24 26 26 26 26 27 28 28 26 26 28 28 28 27 27 27 27 28 27 25 23 22 22 23 26 28 30 31 32 33 36 32 33 32 33 35
12 11 14 16 18 20 21 23 24 26 27 27 28 29 28 27 28 28 28 27 27 26 26 26 27 27 26 25 23 21 23 25 29 30 29 29 31 36 36 35 34 34 33
9 12 15 17 18 19 19 20 22 25 26 27 28 29 30 29 29 29 29 29 29 29 25 24 27 28 27 25 26 25 26 28 29 28 29 30 28 31 36 36 35 35 37
10 13 15 15 15 17 18 21 23 25 26 26 25 26 28 29 29 27 29 30 31 30 27 25 26 29 29 27 26 27 27 29 28 28 28 29 28 31 33 36 38 37 36
13 14 14 14 16 18 19 21 23 24 24 23 22 21 22 23 25 26 27 28 31 32 30 28 27 28 29 27 30 30 27 27 27 25 25 28 30 28 24 27 33 35 35
14 14 14 15 16 16 18 20 20 21 22 20 17 17 18 19 21 23 25 27 28 30 30 30 28 28 31 26 23 27 25 25 24 23 23 22 24 27 25 21 25 30 30
13 13 13 14 14 16 18 18 18 19 18 17 16 15 12 12 16 20 22 23 23 24 26 29 27 27 34 29 23 25 25 24 24 23 23 22 23 22 28 31 30 31 30
10 11 12 12 14 16 18 17 17 17 16 15 14 11 8 9 15 21 24 20 15 17 20 19 19 22 27 26 27 26 25 23 24 25 26 26 26 27 22 22 25 32 37
9 10 10 11 14 16 17 18 18 16 15 13 11 9 8 10 14 19 23 21 10 1 8 13 15 16 17 20 22 23 23 22 22 25 26 26 24 23 22 21 22 22 25
Wind_Direction
283 285 288 292 297 302 310 316 316 306 304 302 299 294 290 292 289 285 294 270 257 261 248 241 240 235 234 232 234 238 226 217 212 219 207 205 210 215 220 219 217 216 218
280 282 287 291 297 300 305 309 311 304 297 294 293 295 292 292 288 280 268 263 263 270 258 252 245 239 235 231 232 232 217 217 213 216 214 217 218 218 212 206 208 213 217
279 284 287 287 289 292 296 300 303 299 292 292 292 294 293 288 281 269 264 262 265 263 257 257 249 237 231 233 231 224 227 223 218 216 214 216 221 223 225 216 208 210 220
284 286 285 284 290 291 291 295 299 299 295 294 291 290 285 278 267 259 258 257 262 261 257 255 241 231 230 236 231 216 220 228 230 224 223 222 228 237 241 231 221 217 222
280 283 287 288 291 291 289 289 292 290 290 290 291 290 282 268 258 257 258 260 265 265 253 248 239 232 231 237 233 229 231 238 230 228 234 234 236 239 239 235 231 228 230
275 280 289 291 292 293 293 291 288 283 287 290 287 282 278 271 265 265 267 270 272 262 250 243 234 231 228 233 231 235 237 231 224 233 237 240 243 237 230 230 233 234 230
280 285 293 293 296 299 298 295 290 286 283 280 277 277 277 278 276 272 273 274 275 263 263 253 235 225 218 218 221 223 224 223 229 237 239 238 239 237 230 224 229 235 233
286 292 296 297 301 303 302 297 294 292 285 276 275 280 283 282 287 287 283 279 283 279 279 283 229 212 210 218 219 217 220 223 232 240 235 240 241 236 233 228 225 228 237
292 296 298 299 303 306 310 305 296 292 282 276 278 280 280 279 284 291 295 293 289 281 275 269 233 213 210 219 221 220 225 229 232 235 232 243 242 242 238 237 236 240 246
291 293 296 299 301 298 302 309 299 293 281 276 277 279 279 276 278 286 290 294 294 283 272 262 240 222 217 218 222 226 228 227 235 232 234 240 239 244 245 242 242 246 248
291 290 293 298 296 297 295 307 298 288 280 274 271 272 279 285 287 291 295 297 296 295 270 250 245 249 239 227 232 232 225 236 237 232 240 241 243 242 243 244 244 245 248
288 288 293 297 295 301 304 303 295 284 278 273 275 278 283 288 290 290 291 289 291 295 286 264 258 251 242 234 242 229 235 242 244 244 244 248 244 242 239 244 246 242 239
288 281 283 300 302 302 304 303 295 284 277 272 272 278 283 286 286 287 288 288 286 284 282 269 259 248 243 242 249 242 245 252 245 237 239 241 245 242 240 241 242 238 239
279 280 280 293 300 298 297 295 291 286 282 279 279 279 281 282 282 283 283 281 278 276 279 272 262 256 252 254 260 248 249 247 243 237 237 240 242 239 238 239 241 239 239
270 279 284 292 298 298 293 288 289 291 293 291 289 287 283 282 281 279 276 272 269 268 270 267 262 262 260 259 259 256 250 244 240 237 236 237 238 240 242 238 232 235 240
272 278 285 290 295 294 287 286 293 298 300 298 295 290 287 282 277 274 271 270 269 270 270 266 262 258 258 258 258 258 251 255 258 254 241 235 235 236 238 236 231 233 235
277 285 287 286 290 292 288 288 293 297 299 300 297 292 288 280 272 273 274 272 267 264 264 261 253 250 253 250 248 251 253 258 257 256 245 237 233 233 233 231 228 231 232
281 283 282 288 291 290 289 291 295 298 300 298 293 289 288 283 278 275 273 271 266 261 260 256 250 249 252 257 251 246 246 247 246 247 246 239 238 240 235 230 226 233 233
264 277 288 289 290 292 294 296 298 298 298 295 292 289 287 285 282 277 271 268 266 261 255 248 245 246 254 261 257 250 244 247 250 248 248 245 238 235 232 230 229 231 234
288 289 288 291 294 295 295 295 297 299 301 300 295 292 289 286 281 278 276 273 270 264 255 248 242 242 246 245 246 251 248 246 248 248 250 251 240 239 236 232 230 230 232
292 294 296 298 301 303 302 303 306 307 308 304 297 291 289 288 285 281 278 277 276 272 266 260 252 245 234 230 236 246 250 247 244 242 244 250 249 246 237 238 234 233 234
304 305 304 305 308 308 310 314 316 317 315 312 308 304 299 295 294 292 287 279 274 271 268 262 252 237 225 230 236 238 241 242 243 244 247 249 249 243 236 234 232 230 234
310 311 310 307 309 315 321 323 323 321 318 316 313 308 304 303 304 301 294 285 275 267 261 256 251 246 231 221 228 229 234 237 240 245 249 249 248 251 242 231 220 223 229
313 314 314 315 319 324 329 329 326 325 324 325 324 322 320 324 327 324 314 296 277 264 257 255 253 237 219 219 226 228 236 240 239 242 248 253 252 262 266 259 249 234 225
320 319 321 325 328 332 337 336 335 337 337 334 334 333 334 340 342 343 340 328 292 254 245 244 235 220 211 214 222 227 233 237 241 244 247 253 260 261 270 280 264 250 244
323 320 321 326 333 334 337 342 347 348 344 336 335 331 323 331 342 352 358 3 359 291 198 197 203 207 205 216 223 228 236 239 244 247 248 248 254 253 258 263 265 265 262
Height
5852 5851 5851 5850 5848 5846 5844 5842 5841 5839 5836 5833 5831 5831 5830 5830 5828 5826 5825 5824 5827 5828 5827 5830 5832 5833 5834 5836 5838 5840 5841 5845 5846 5848 5848 5850 5850 5851 5852 5854 5855 5858 5861
5847 5846 5846 5845 5843 5841 5839 5837 5835 5834 5831 5828 5827 5827 5826 5824 5823 5821 5823 5823 5825 5826 5825 5826 5828 5829 5831 5833 5834 5835 5838 5841 5845 5847 5847 5849 5850 5850 5851 5852 5855 5856 5859
5842 5841 5840 5840 5839 5837 5834 5832 5829 5828 5825 5823 5822 5821 5820 5819 5818 5817 5818 5819 5819 5821 5821 5822 5824 5825 5827 5829 5830 5831 5835 5838 5842 5845 5846 5847 5848 5849 5850 5851 5853 5855 5857
5837 5836 5835 5834 5832 5831 5829 5826 5823 5821 5819 5817 5816 5814 5812 5812 5812 5812 5812 5814 5815 5815 5815 5817 5819 5820 5822 5824 5826 5828 5831 5835 5839 5841 5843 5845 5847 5847 5847 5849 5851 5853 5855
5832 5831 5830 5829 5826 5824 5822 5820 5817 5815 5813 5811 5810 5808 5806 5806 5806 5806 5806 5808 5809 5808 5808 5810 5812 5814 5816 5819 5823 5825 5828 5831 5835 5838 5840 5841 5842 5843 5845 5846 5848 5850 5852
5826 5826 5825 5823 5820 5817 5814 5813 5811 5808 5806 5804 5803 5802 5801 5800 5800 5799 5800 5801 5801 5799 5800 5802 5803 5806 5809 5812 5817 5822 5825 5826 5830 5833 5835 5836 5838 5840 5841 5843 5844 5846 5849
5821 5820 5817 5816 5814 5811 5808 5805 5803 5801 5800 5797 5797 5797 5796 5795 5794 5793 5792 5793 5793 5792 5794 5794 5795 5799 5802 5805 5810 5814 5817 5820 5824 5828 5831 5833 5835 5837 5839 5839 5841 5843 5844
5815 5814 5811 5810 5808 5805 5802 5800 5798 5796 5793 5791 5791 5791 5791 5790 5789 5788 5787 5786 5786 5785 5785 5783 5786 5791 5796 5799 5802 5805 5810 5814 5818 5821 5825 5828 5831 5833 5835 5836 5837 5838 5841
5810 5808 5805 5804 5802 5799 5796 5795 5792 5789 5787 5786 5786 5785 5786 5786 5785 5783 5783 5781 5781 5782 5781 5780 5781 5785 5788 5792 5796 5800 5804 5808 5812 5816 5819 5822 5825 5827 5830 5831 5833 5835 5836
5804 5803 5801 5799 5796 5794 5792 5789 5786 5783 5782 5781 5781 5780 5780 5780 5780 5779 5778 5777 5777 5777 5777 5776 5776 5782 5785 5787 5791 5795 5800 5803 5806 5809 5813 5815 5817 5820 5824 5826 5827 5829 5832
5797 5797 5795 5793 5789 5789 5787 5784 5780 5778 5777 5776 5775 5776 5775 5775 5775 5774 5773 5772 5772 5773 5773 5774 5775 5777 5780 5784 5787 5790 5795 5797 5799 5803 5806 5809 5810 5813 5816 5819 5821 5823 5825
5791 5790 5789 5787 5784 5783 5781 5777 5774 5773 5772 5771 5770 5770 5770 5770 5770 5770 5770 5768 5767 5768 5770 5771 5771 5773 5774 5778 5780 5784 5788 5791 5793 5796 5800 5802 5803 5806 5808 5811 5813 5815 5817
5785 5784 5782 5779 5777 5776 5775 5772 5769 5768 5768 5767 5767 5766 5766 5765 5765 5765 5765 5763 5763 5762 5764 5766 5767 5769 5771 5774 5775 5778 5781 5783 5784 5787 5792 5794 5796 5796 5799 5802 5804 5808 5811
5778 5778 5775 5772 5771 5769 5770 5768 5766 5764 5764 5763 5762 5762 5761 5760 5759 5759 5758 5757 5758 5759 5759 5759 5760 5761 5764 5766 5767 5769 5772 5775 5778 5780 5783 5786 5788 5788 5790 5794 5797 5801 5803
5771 5770 5768 5767 5766 5764 5763 5762 5761 5760 5759 5758 5756 5755 5754 5753 5752 5751 5751 5751 5751 5752 5753 5754 5754 5754 5755 5757 5760 5762 5765 5768 5771 5773 5776 5778 5780 5783 5785 5787 5790 5794 5797
5763 5763 5762 5760 5759 5758 5757 5756 5755 5754 5753 5751 5749 5747 5747 5746 5745 5744 5744 5745 5744 5744 5745 5747 5748 5749 5749 5750 5752 5755 5758 5760 5762 5764 5766 5769 5773 5776 5778 5781 5784 5787 5790
5757 5757 5755 5753 5752 5751 5751 5750 5748 5748 5746 5744 5741 5739 5738 5738 5737 5737 5737 5737 5737 5737 5738 5740 5742 5743 5745 5746 5747 5749 5750 5752 5754 5755 5758 5761 5766 5769 5770 5773 5777 5780 5783
5750 5750 5749 5749 5748 5746 5745 5743 5742 5741 5739 5737 5734 5731 5730 5730 5730 5730 5729 5728 5728 5729 5730 5731 5733 5734 5736 5739 5741 5743 5744 5746 5747 5750 5752 5754 5758 5761 5763 5766 5770 5774 5777
5745 5746 5745 5744 5743 5741 5739 5738 5736 5735 5732 5730 5726 5722 5722 5722 5721 5720 5720 5719 5719 5719 5720 5722 5725 5727 5729 5731 5732 5735 5737 5740 5741 5743 5745 5747 5748 5751 5754 5758 5762 5766 5769
5743 5742 5741 5740 5738 5737 5735 5733 5731 5729 5725 5722 5718 5715 5713 5713 5713 5711 5710 5710 5710 5711 5712 5714 5716 5719 5721 5724 5727 5729 5731 5733 5735 5737 5739 5740 5741 5743 5746 5749 5753 5757 5761
5739 5738 5737 5735 5734 5732 5730 5727 5725 5721 5718 5714 5711 5709 5706 5704 5702 5703 5702 5701 5701 5701 5703 5704 5707 5710 5714 5717 5720 5722 5724 5726 5728 5731 5733 5734 5735 5736 5739 5742 5744 5748 5751
5735 5733 5732 5730 5729 5727 5724 5721 5718 5714 5710 5707 5704 5701 5699 5697 5695 5694 5693 5693 5692 5691 5693 5695 5698 5702 5706 5710 5713 5715 5718 5720 5721 5724 5726 5728 5728 5730 5732 5733 5736 5741 5743
5731 5730 5729 5727 5726 5723 5720 5717 5713 5709 5705 5701 5699 5696 5693 5691 5689 5687 5684 5682 5680 5681 5683 5685 5688 5692 5698 5702 5705 5709 5712 5714 5715 5717 5719 5721 5723 5724 5726 5728 5730 5732 5735
5728 5727 5726 5724 5722 5720 5717 5713 5709 5705 5701 5697 5694 5691 5689 5687 5685 5681 5676 5672 5670 5671 5674 5676 5680 5684 5689 5694 5698 5702 5705 5707 5710 5712 5714 5716 5717 5719 5720 5721 5722 5724 5725
5725 5724 5722 5721 5718 5716 5713 5710 5706 5702 5698 5694 5692 5689 5688 5686 5682 5678 5671 5664 5661 5661 5665 5669 5673 5679 5683 5688 5693 5696 5699 5701 5704 5706 5708 5710 5711 5713 5714 5713 5714 5716 5719
5723 5722 5720 5719 5717 5715 5712 5708 5704 5700 5696 5694 5691 5689 5687 5685 5681 5677 5671 5664 5659 5659 5661 5665 5671 5675 5680 5684 5688 5691 5694 5696 5699 5701 5702 5704 5706 5707 5709 5710 5710 5710 5711